[[{"header":{"parameterUnit":"m.s-1","parameterCategory":1,"la1":30.2991,"la2":30.254,"lo1":-89.0895,"lo2":-89.0444,"dy":0.0017,"dx":0.0017,"nx":28,"ny":28,"refTime":"2025-08-27T09:00:00:Z","depth":0,"parameterNumber":2,"parameterNumberName":"U-component_of_WINDS"},"data":[0,0,0,0,0,0,0,0,0,0,0,0,0,0,0,0,0,0,0,0,0,0,0,0,0,0,0,0,0,0,0,0,0,0,0,0,0,0,0,0,0,0,0,0,0,0,0,0,0,0,0,0,0,0,0,0,0,0,-2.8949,-2.895,0,-2.912,-2.9121,-2.9123,-2.9193,-2.9192,-2.9192,-2.9192,-2.936,-2.9365,-2.9369,0,0,0,0,0,0,0,0,0,0,0,0,0,-2.8677,-2.8681,-2.8948,-2.8951,-2.8953,-2.9119,-2.9122,-2.9124,-2.9193,-2.9192,-2.9192,-2.9192,-2.9358,-2.9364,-2.937,0,0,0,0,0,0,0,0,0,0,0,0,0,-2.8816,-2.8683,-2.8948,-2.9007,-2.9014,-2.9119,-2.9122,-2.9125,-2.9193,-2.9192,-2.9192,-2.9191,-2.9357,-2.9364,-2.9371,-2.9427,0,0,-2.9393,-2.9396,0,0,0,0,0,0,0,0,-2.8808,-2.8826,-2.8997,-2.9003,-2.9012,-2.9134,-2.9088,-2.9226,-2.9193,-2.9125,-2.9192,-2.9191,-2.9285,-2.9298,-2.9331,-2.9434,-2.9442,-2.9393,-2.9398,-2.9401,-2.9403,0,0,0,0,0,0,0,-2.8798,-2.8819,-2.9016,-2.8999,-2.9008,-2.9024,-2.9043,-2.9114,-2.9206,-2.9131,-2.9136,-2.9156,-2.9289,-2.9324,-2.9336,-2.9444,-2.9393,-2.94,-2.9404,-2.9407,-2.9604,-2.9605,0,0,0,0,0,0,-2.8779,-2.881,-2.901,-2.9021,-2.8906,-2.9029,-2.9051,-2.9095,-2.9205,-2.9222,-2.9156,-2.9159,-2.9312,-2.9327,-2.9342,-2.9416,-2.9401,-2.9408,-2.9412,-2.9603,-2.9604,-2.9605,0,0,0,0,0,0,-2.8773,-2.8797,-2.9004,-2.8917,-2.8945,-2.9035,-2.9084,-2.9099,-2.9134,-2.9225,-2.9241,-2.9176,-2.9312,-2.9332,-2.9406,-2.9422,-2.9411,-2.9418,-2.9602,-2.9604,-2.9605,-2.9563,0,0,0,0,0,0,-2.8765,-2.8794,-2.8817,-2.8917,-2.8949,-2.9066,-2.9085,-2.9103,-2.9147,-2.9152,-2.9247,-2.9262,-2.9313,-2.9395,-2.9413,-2.9432,-2.9423,-2.9601,-2.9603,-2.9604,-2.9563,-2.9563,-2.9562,0,0,0,0,0,-2.8755,-2.8797,-2.8818,-2.8842,-2.898,-2.9067,-2.9085,-2.9145,-2.9148,-2.9172,-2.923,-2.9259,-2.9418,-2.9402,-2.9423,-2.9444,-2.96,-2.9602,-2.9604,-2.9564,-2.9563,-2.9562,0,0,0,0,0,0,-2.8693,-2.8811,-2.8836,-2.8911,-2.8979,-2.9079,-2.911,-2.9142,-2.9208,-2.9209,-2.9279,-2.93,-2.9368,-2.9414,-2.9394,-2.9506,-2.9511,-2.9518,-2.9473,-2.9473,-2.9473,-2.946,-2.9429,0,0,0,0,0,-2.8688,-2.8751,-2.885,-2.8906,-2.894,-2.9019,-2.9059,-2.91,-2.9171,-2.92,-2.9263,-2.933,-2.9396,-2.9437,-2.9502,-2.9571,-2.9592,-2.9596,-2.9596,-2.9595,-2.9599,-2.964,-2.9643,-2.9612,-2.9612,-2.9612,0,0,-2.8678,-2.8751,-2.8785,-2.8896,-2.8953,-2.9015,-2.9042,-2.9106,-2.9152,-2.9209,-2.9284,-2.9333,-2.9412,-2.9485,-2.952,-2.9525,-2.9613,-2.9597,-2.9596,-2.9601,-2.9642,-2.9645,-2.9648,-2.9613,-2.9613,-2.9613,0,0,-2.8693,-2.8754,-2.8809,-2.8867,-2.8954,-2.9007,-2.902,-2.9116,-2.9152,-2.9229,-2.9273,-2.9329,-2.9439,-2.9495,-2.9537,-2.9576,-2.9605,-2.9595,-2.9592,-2.9631,-2.9633,-2.9636,-2.965,-2.9654,-2.9599,-2.9599,-2.9599,0,-2.8669,-2.8766,-2.8832,-2.8895,-2.8942,-2.9,-2.9055,-2.9107,-2.921,-2.9241,-2.9246,-2.9389,-2.9446,-2.9533,-2.9542,-2.9575,-2.9592,-2.9584,-2.9628,-2.9631,-2.9634,-2.9649,-2.9654,-2.9597,-2.9597,-2.9598,-2.9598,0,-2.8733,-2.8799,-2.8833,-2.8935,-2.8986,-2.9044,-2.9119,-2.9162,-2.9199,-2.9251,-2.9329,-2.9401,-2.9482,-2.9506,-2.9541,-2.9598,-2.9599,-2.9615,-2.9622,-2.9635,-2.9649,-2.9655,-2.9595,-2.9595,-2.9596,-2.9596,0,0,-2.871,-2.8851,-2.8862,-2.8909,-2.9012,-2.9063,-2.9125,-2.9207,-2.9243,-2.9313,-2.9366,-2.946,-2.9477,-2.9525,-2.9567,-2.9601,-2.9628,-2.9614,-2.9617,-2.9614,-2.9696,-2.9683,-2.9688,-2.9649,-2.965,-2.9651,-2.969,0,-2.8738,-2.8853,-2.8916,-2.9004,-2.9066,-2.9123,-2.9176,-2.9244,-2.9294,-2.9354,-2.9409,-2.9475,-2.9492,-2.9522,-2.9558,-2.9617,-2.9645,-2.9615,-2.9697,-2.9699,-2.9675,-2.9696,-2.9682,-2.9714,-2.9696,-2.9697,-2.9697,0,-2.8786,-2.8858,-2.8953,-2.905,-2.9079,-2.9126,-2.9208,-2.9264,-2.9342,-2.9376,-2.9432,-2.9475,-2.9541,-2.9544,-2.9635,-2.9613,-2.9651,-2.9685,-2.9688,-2.9697,-2.9698,-2.9705,-2.9726,-2.9731,-2.9707,-2.9706,-2.9705,0,-2.8761,-2.8882,-2.8955,-2.8994,-2.9108,-2.914,-2.9189,-2.9267,-2.9313,-2.9384,-2.9415,-2.9491,-2.9532,-2.959,-2.9652,-2.9648,-2.9737,-2.9745,-2.9767,-2.9765,-2.9782,-2.978,-2.9809,-2.9807,-2.9807,-2.9807,-2.9807,0,-2.8786,-2.8842,-2.8946,-2.899,-2.9054,-2.9126,-2.9187,-2.924,-2.9309,-2.9364,-2.9417,-2.9467,-2.9546,-2.9606,-2.9654,-2.9723,-2.9741,-2.977,-2.9782,-2.9766,-2.9762,-2.979,-2.9789,-2.9808,-2.9808,-2.9808,-2.9807,0,-2.8768,-2.884,-2.8924,-2.9027,-2.9054,-2.9097,-2.9184,-2.9229,-2.9284,-2.9353,-2.9373,-2.9458,-2.9531,-2.9599,-2.9696,-2.9729,-2.9798,-2.9814,-2.9772,-2.9779,-2.9797,-2.9794,-2.9845,-2.9855,-2.9846,-2.9846,-2.9846,0,-2.8779,-2.8824,-2.8933,-2.8975,-2.9024,-2.909,-2.9139,-2.9211,-2.9258,-2.9352,-2.9386,-2.9464,-2.953,-2.9644,-2.9713,-2.9788,-2.9806,-2.9819,-2.9817,-2.9799,-2.9806,-2.9803,-2.9808,-2.9817,-2.9817,-2.9816,-2.9816,0,-2.8791,-2.8826,-2.8894,-2.8976,-2.9033,-2.91,-2.9168,-2.9199,-2.9284,-2.9335,-2.9412,-2.9464,-2.9565,-2.9641,-2.9724,-2.9773,-2.9808,-2.9817,-2.9826,-2.9808,-2.9783,-2.9797,-2.977,-2.9815,-2.9815,-2.9815,-2.9815,-2.9815,-2.8789,-2.8832,-2.8916,-2.8991,-2.9051,-2.9115,-2.9163,-2.9224,-2.9291,-2.938,-2.9418,-2.9496,-2.9574,-2.969,-2.9739,-2.98,-2.9808,-2.9821,-2.9824,-2.9826,-2.9823,-2.9774,-2.9816,-2.9816,-2.9816,-2.9816,-2.9816,0,-2.8804,-2.8862,-2.893,-2.9026,-2.9085,-2.9117,-2.9195,-2.9241,-2.931,-2.9381,-2.9446,-2.9535,-2.961,-2.9687,-2.9766,-2.98,-2.9818,-2.9818,-2.9816,-2.9827,-2.9811,-2.9796,-2.9802,-2.9802,-2.9802,-2.9802,-2.9802,-2.9802,-2.8819,-2.8894,-2.8938,-2.9043,-2.91,-2.9179,-2.9221,-2.928,-2.9337,-2.9435,-2.9499,-2.9549,-2.9622,-2.9707,-2.9777,-2.9797,-2.9824,-2.9819,-2.9844,-2.9827,-2.9828,-2.9828,-2.9814,-2.9824,-2.9824,-2.9854,-2.9855,-2.9855]},{"header":{"parameterUnit":"m.s-1","parameterCategory":1,"la1":30.2991,"la2":30.254,"lo1":-89.0895,"lo2":-89.0444,"dy":0.0017,"dx":0.0017,"nx":28,"ny":28,"refTime":"2025-08-27T09:00:00:Z","depth":0,"parameterNumber":3,"parameterNumberName":"V-component_of_WINDS"},"data":[0,0,0,0,0,0,0,0,0,0,0,0,0,0,0,0,0,0,0,0,0,0,0,0,0,0,0,0,0,0,0,0,0,0,0,0,0,0,0,0,0,0,0,0,0,0,0,0,0,0,0,0,0,0,0,0,0,0,0.8496,0.8497,0,0.8548,0.8549,0.855,0.8584,0.8584,0.8584,0.8585,0.8633,0.8634,0.8636,0,0,0,0,0,0,0,0,0,0,0,0,0,0.8422,0.8423,0.8496,0.8497,0.8497,0.8548,0.8549,0.855,0.8584,0.8584,0.8584,0.8585,0.8633,0.8634,0.8636,0,0,0,0,0,0,0,0,0,0,0,0,0,0.8462,0.8423,0.8496,0.8521,0.8523,0.8548,0.8549,0.855,0.8584,0.8584,0.8584,0.8585,0.8633,0.8634,0.8636,0.8639,0,0,0.8641,0.8641,0,0,0,0,0,0,0,0,0.846,0.8465,0.8516,0.8519,0.8522,0.856,0.8541,0.858,0.8584,0.8561,0.8585,0.8585,0.8608,0.8612,0.8621,0.8641,0.8643,0.8641,0.8642,0.8643,0.8643,0,0,0,0,0,0,0,0.8457,0.8462,0.8517,0.8517,0.8521,0.8528,0.8534,0.8548,0.8582,0.8563,0.8565,0.8571,0.861,0.8619,0.8622,0.8644,0.8641,0.8642,0.8643,0.8644,0.867,0.8669,0,0,0,0,0,0,0.8451,0.846,0.8515,0.8518,0.8491,0.8529,0.8536,0.8547,0.8582,0.8587,0.8571,0.8573,0.8616,0.862,0.8624,0.863,0.8643,0.8644,0.8645,0.867,0.867,0.8669,0,0,0,0,0,0,0.8449,0.8455,0.8513,0.849,0.8498,0.853,0.8543,0.8548,0.8558,0.8588,0.8594,0.8575,0.8617,0.8622,0.8635,0.8633,0.8645,0.8646,0.867,0.867,0.8669,0.8642,0,0,0,0,0,0,0.8447,0.8454,0.8457,0.849,0.8499,0.8524,0.8543,0.8549,0.8561,0.8564,0.8593,0.8598,0.8617,0.8633,0.8637,0.8635,0.8648,0.8671,0.867,0.867,0.8644,0.8641,0.8639,0,0,0,0,0,0.8444,0.8446,0.8457,0.8463,0.8503,0.8524,0.8529,0.8553,0.8561,0.8563,0.8582,0.8597,0.8632,0.8634,0.8639,0.8637,0.8671,0.867,0.867,0.8645,0.8642,0.8639,0,0,0,0,0,0,0.8409,0.845,0.8463,0.8476,0.8496,0.853,0.8533,0.8548,0.8566,0.8568,0.8595,0.8601,0.8612,0.8626,0.8627,0.8642,0.8653,0.8654,0.8633,0.863,0.8628,0.8624,0.8649,0,0,0,0,0,0.8404,0.8419,0.8453,0.8461,0.8471,0.85,0.851,0.8527,0.8549,0.8557,0.8578,0.8597,0.8613,0.8622,0.8638,0.8646,0.8653,0.8647,0.8645,0.8643,0.8643,0.8648,0.8646,0.8667,0.8667,0.8667,0,0,0.8391,0.8415,0.8423,0.8455,0.8473,0.8487,0.8507,0.8521,0.8532,0.8559,0.8573,0.8589,0.8612,0.8624,0.8629,0.8636,0.8639,0.8642,0.864,0.8641,0.8647,0.8645,0.8644,0.8667,0.8667,0.8667,0,0,0.8375,0.8396,0.8405,0.8423,0.8451,0.847,0.8473,0.8504,0.8516,0.8532,0.8553,0.8565,0.8591,0.8607,0.8619,0.8611,0.8625,0.8615,0.8602,0.8607,0.8606,0.8604,0.8602,0.86,0.8615,0.8615,0.8615,0,0.8356,0.838,0.8407,0.8421,0.8434,0.8461,0.8471,0.8486,0.8517,0.8525,0.8532,0.8566,0.8584,0.8599,0.8597,0.8606,0.8609,0.8612,0.8604,0.8603,0.8602,0.86,0.8599,0.8613,0.8614,0.8614,0.8614,0,0.8354,0.837,0.8374,0.8406,0.8419,0.843,0.8458,0.8469,0.8485,0.8503,0.8519,0.8541,0.8562,0.8567,0.8582,0.8585,0.8588,0.8599,0.8611,0.8598,0.8596,0.8596,0.8611,0.8612,0.8612,0.8613,0,0,0.8317,0.8365,0.8366,0.8381,0.8414,0.8426,0.8438,0.8461,0.847,0.849,0.85,0.8523,0.8534,0.8547,0.8564,0.8568,0.8561,0.8579,0.858,0.8575,0.8565,0.8556,0.8555,0.8571,0.8571,0.8571,0.8563,0,0.8306,0.8331,0.8357,0.8373,0.8388,0.8415,0.8425,0.8446,0.8464,0.8479,0.8498,0.8513,0.8527,0.8535,0.8541,0.8561,0.8559,0.8561,0.858,0.858,0.8573,0.8554,0.8544,0.8536,0.8563,0.8563,0.8563,0,0.8297,0.8318,0.8336,0.8369,0.8376,0.8385,0.8409,0.8423,0.8447,0.8459,0.8475,0.8494,0.8507,0.8517,0.8536,0.8537,0.8546,0.8557,0.8557,0.8559,0.857,0.8555,0.8534,0.8533,0.8562,0.8562,0.8562,0,0.8268,0.8301,0.8316,0.8328,0.8367,0.8373,0.8389,0.8414,0.8426,0.8446,0.8454,0.8475,0.8486,0.8501,0.8524,0.8529,0.854,0.8552,0.855,0.8549,0.855,0.8549,0.8529,0.8556,0.8556,0.8556,0.8556,0,0.8253,0.8262,0.8304,0.8313,0.8324,0.8354,0.8364,0.8382,0.8404,0.8417,0.8441,0.8451,0.8482,0.8496,0.8514,0.8526,0.8531,0.8541,0.8546,0.8539,0.8537,0.8544,0.8545,0.8556,0.8556,0.8556,0.8556,0,0.8222,0.825,0.8269,0.8305,0.8314,0.8321,0.8351,0.836,0.8381,0.8396,0.8401,0.8432,0.845,0.8475,0.85,0.8512,0.8522,0.8529,0.8514,0.8517,0.8513,0.8513,0.8496,0.8496,0.8523,0.8523,0.8523,0,0.821,0.8219,0.8257,0.8268,0.8284,0.8301,0.8314,0.8344,0.8356,0.8385,0.8391,0.8411,0.8429,0.8456,0.848,0.8499,0.8507,0.85,0.851,0.8503,0.8507,0.8506,0.8507,0.8497,0.8497,0.8497,0.8496,0,0.8187,0.8201,0.822,0.8245,0.8261,0.8281,0.8302,0.8309,0.8342,0.8355,0.8375,0.8389,0.8416,0.8435,0.8458,0.8474,0.849,0.8494,0.8494,0.8486,0.8477,0.8482,0.8507,0.8493,0.8494,0.8494,0.8494,0.8494,0.8165,0.8174,0.8203,0.8223,0.8243,0.8262,0.8273,0.8296,0.8313,0.8339,0.8355,0.8374,0.8398,0.8431,0.8446,0.846,0.8467,0.8467,0.8467,0.8467,0.8464,0.8476,0.8464,0.8464,0.8465,0.8465,0.8465,0,0.8142,0.8163,0.8182,0.8212,0.8228,0.8245,0.8269,0.8281,0.8298,0.8321,0.8338,0.8361,0.8381,0.8406,0.8428,0.8434,0.8442,0.8439,0.8438,0.8441,0.8457,0.8455,0.8432,0.8432,0.8432,0.8432,0.8432,0.8432,0.8133,0.8149,0.8167,0.8193,0.8212,0.8233,0.8245,0.8263,0.8281,0.8306,0.8324,0.8341,0.8365,0.8388,0.8406,0.8413,0.842,0.8413,0.8423,0.8437,0.844,0.8443,0.8441,0.8415,0.8415,0.8405,0.8405,0.8405]}]]